Regional Weather Roundup
Issued by NWS

Home | Current Version | Previous Version | Graphics & Text | Print | Product List | Glossary On
Versions: 1 2 3 4 5 6 7 8 9 10 11 12 13 14 15 16 17 18 19 20 21 22 23 24 25 26 27 28 29 30 31 32 33 34 35 36 37 38 39 40 41 42 43 44 45 46 47 48 49 50
000
ASUS43 KOAX 262010
RWRNE

WEATHER ROUNDUP FOR NEBRASKA
NATIONAL WEATHER SERVICE OMAHA NE
200 PM CST THU FEB 26 2015

NOTES: SATELLITE DATA IS BEING USED TO AUGMENT CLOUD COVER ABOVE
       12000 FEET.
       "FAIR" INDICATES FEW OR NO CLOUDS BELOW 12,000 FEET WITH NO
       SIGNIFICANT WEATHER AND/OR OBSTRUCTIONS TO VISIBILITY.

  * THESE STATIONS DO NOT REPORT WEATHER SUCH AS RAIN...SNOW OR FOG.

NEZ001>004-019>022-054>056-262100-
NEBRASKA PANHANDLE

CITY           SKY/WX    TMP DP  RH WIND       PRES   REMARKS
SCOTTSBLUFF    LGT SNOW  16   4  59 N7        30.29F WCI   6
ALLIANCE       PTSUNNY   12   0  58 N7        30.30F WCI   1
CHADRON        LGT SNOW  11   0  61 VRB5      30.39F WCI   3
KIMBALL        LGT SNOW  14   8  77 NE5       30.18F WCI   6
SIDNEY         LGT SNOW  16   7  67 NE7       30.25F WCI   6
$$

NEZ057>060-069>072-079>082-262100-
SOUTHWEST NEBRASKA

CITY           SKY/WX    TMP DP  RH WIND       PRES   REMARKS
NORTH PLATTE   MOSUNNY   19  -2  39 N13G26    30.38F WCI   6
IMPERIAL         N/A     19   1  45 N13       30.33F WCI   6
LEXINGTON      SUNNY     20  -5  33 N15G22    30.41F WCI   6
MCCOOK         PTSUNNY   24  -2  32 N15       30.39F WCI  11
OGALLALA       CLOUDY    20   2  46 N12       30.34F WCI   8
$$

NEZ005>010-023>029-035>040-094-262100-
NORTH CENTRAL NEBRASKA

CITY           SKY/WX    TMP DP  RH WIND       PRES   REMARKS
VALENTINE      MOSUNNY   10  -3  55 N10G23    30.44F WCI  -4
AINSWORTH      SUNNY     10  -3  55 N17       30.43S WCI  -8
BROKEN BOW     SUNNY     16  -4  41 N18G25    30.41F WCI   0
O`NEILL        PTSUNNY   12   1  61 N13G21    30.47S WCI  -3
ORD            SUNNY     15  -6  39 N15G22    30.44F WCI   0
THEDFORD       MOSUNNY   16  -1  48 N9G20     30.39F WCI   4
$$

NEZ041-046>049-061>064-073>077-083>087-262100-
SOUTH CENTRAL NEBRASKA

CITY           SKY/WX    TMP DP  RH WIND       PRES   REMARKS
GRAND ISLAND   SUNNY     14  -5  42 N13G23    30.46F WCI   0
AURORA         SUNNY     15  -4  41 N13G22    30.46F WCI   1
HASTINGS       SUNNY     16  -6  37 N15       30.44F WCI   1
HEBRON         SUNNY     17  -5  37 N13G23    30.48S WCI   3
HOLDREGE       SUNNY     19  -6  31 N12G22    30.41F WCI   7
KEARNEY *      SUNNY     18  -4  38 N14       30.43F WCI   4
YORK           MOSUNNY   14   0  52 N15G24    30.47F WCI  -1
$$

NEZ011>018-030>034-042>045-262100-
NORTHEAST NEBRASKA

CITY           SKY/WX    TMP DP  RH WIND       PRES   REMARKS
NORFOLK        CLOUDY    11   0  61 N18G29    30.48S WCI  -7
ALBION         PTSUNNY   11  -2  57 N13       30.48S WCI  -5
BLAIR          CLOUDY    10   0  63 N15G22    30.48S WCI  -6
COLUMBUS *     CLOUDY    12  -4  48 NW16G22   30.51S WCI  -4
FREMONT        CLOUDY    12   2  65 NW12      30.51S WCI  -2
TEKAMAH        PTSUNNY   11   0  61 N17       30.53R WCI  -6
WAYNE          CLOUDY    10   0  63 N15       30.50S WCI  -7
$$

NEZ050>053-065>068-078-088>093-262100-
SOUTHEAST NEBRASKA

CITY           SKY/WX    TMP DP  RH WIND       PRES   REMARKS
LINCOLN        CLOUDY    15  -1  49 N20       30.51S WCI  -2
OMAHA EPPLEY   PTSUNNY   10   1  67 N21       30.52S WCI  -9
BEATRICE       MOSUNNY   16   1  51 N17G24    30.48F WCI   0
FALLS CITY     PTSUNNY   17  -2  43 N17G25    30.48S WCI   1
NEBRASKA CITY  PTSUNNY   13  -2  51 N18G24    30.48S WCI  -4
PLATTSMOUTH    MOSUNNY   12  -2  54 N15G24    30.48S WCI  -4
$$

NEZ044-045-051>053-067-262100-
OMAHA AREA

CITY           SKY/WX    TMP DP  RH WIND       PRES   REMARKS
OMAHA EPPLEY   PTSUNNY   10   1  67 N21       30.52S WCI  -9
BLAIR          CLOUDY    10   0  63 N15G22    30.48S WCI  -6
FREMONT        CLOUDY    12   2  65 NW12      30.51S WCI  -2
MILLARD        PTSUNNY   11  -2  57 N9G20     30.51F WCI  -2
OFFUTT AFB     MOSUNNY   12  -2  52 N14G23    30.50F WCI  -3
PLATTSMOUTH    MOSUNNY   12  -2  54 N15G24    30.48S WCI  -4
WAHOO          CLOUDY    12   1  61 NW17G23   30.51S WCI  -5
$$


USA.gov is the U.S. government's official web portal to all federal, state and local government web resources and services.